| time (UTC) | temp F | wind direction | speed knots | gust knots | rain 1hr in | rain 24hr in | rain mn in | humidity % | barometer mb |
| 20260510082045 | 38 | 215 | 0.0 | 0.9 | 0.00 | 0.00 | 0.00 | 54 | 1014.1 |
| 20260510081544 | 38 | 215 | 0.0 | 0.9 | 0.00 | 0.00 | 0.00 | 54 | 1014.1 |
| 20260510081044 | 38 | 215 | 0.0 | 0.9 | 0.00 | 0.00 | 0.00 | 54 | 1014.1 |
| 20260510080545 | 38 | 215 | 0.0 | 1.7 | 0.00 | 0.00 | 0.00 | 53 | 1014.1 |
| 20260510075543 | 38 | 215 | 0.0 | 2.6 | 0.00 | 0.00 | 0.00 | 53 | 1014.0 |
| 20260510075042 | 38 | 215 | 0.9 | 1.7 | 0.00 | 0.00 | 0.00 | 53 | 1014.0 |
| 20260510074546 | 38 | 215 | 0.0 | 3.5 | 0.00 | 0.00 | 0.00 | 54 | 1013.9 |
| 20260510074041 | 38 | 215 | 0.9 | 3.5 | 0.00 | 0.00 | 0.00 | 53 | 1013.9 |
| 20260510073538 | 38 | 215 | 0.9 | 1.7 | 0.00 | 0.00 | 0.00 | 54 | 1013.8 |
| 20260510073049 | 38 | 215 | 0.0 | 0.0 | 0.00 | 0.00 | 0.00 | 55 | 1013.7 |
| 20260510072537 | 39 | 215 | 0.0 | 1.7 | 0.00 | 0.00 | 0.00 | 55 | 1013.7 |
| 20260510072037 | 39 | 215 | 0.0 | 4.3 | 0.00 | 0.00 | 0.00 | 55 | 1013.7 |
| 20260510071539 | 38 | 215 | 2.6 | 4.3 | 0.00 | 0.00 | 0.00 | 55 | 1013.6 |
| 20260510071034 | 38 | 215 | 2.6 | 4.3 | 0.00 | 0.00 | 0.00 | 55 | 1013.6 |
| 20260510070532 | 39 | 215 | 1.7 | 2.6 | 0.00 | 0.00 | 0.00 | 54 | 1013.5 |
| 20260510070032 | 39 | 215 | 0.0 | 2.6 | 0.00 | 0.00 | 0.00 | 53 | 1013.5 |
| 20260510065531 | 38 | 215 | 0.0 | 2.6 | 0.00 | 0.00 | 0.00 | 52 | 1013.4 |
| 20260510065030 | 39 | 215 | 0.0 | 1.7 | 0.00 | 0.00 | 0.00 | 49 | 1013.3 |
| 20260510064530 | 39 | 215 | 0.0 | 2.6 | 0.00 | 0.00 | 0.00 | 51 | 1013.3 |
| 20260510064028 | 38 | 215 | 0.9 | 2.6 | 0.00 | 0.00 | 0.00 | 54 | 1013.2 |
| 20260510063526 | 39 | 215 | 0.9 | 2.6 | 0.00 | 0.00 | 0.00 | 55 | 1013.1 |
| 20260510063025 | 40 | 215 | 0.9 | 2.6 | 0.00 | 0.00 | 0.00 | 55 | 1013.0 |
| 20260510062523 | 41 | 215 | 0.0 | 0.9 | 0.00 | 0.00 | 0.00 | 54 | 1013.0 |
| 20260510062022 | 41 | 215 | 0.0 | 1.7 | 0.00 | 0.00 | 0.00 | 54 | 1012.8 |
| 20260510061522 | 41 | 215 | 0.0 | 0.9 | 0.00 | 0.00 | 0.00 | 55 | 1012.7 |
| 20260510061021 | 41 | 215 | 0.0 | 1.7 | 0.00 | 0.00 | 0.00 | 55 | 1012.6 |
| 20260510060521 | 41 | 215 | 0.9 | 1.7 | 0.00 | 0.00 | 0.00 | 55 | 1012.6 |
| 20260510060034 | 41 | 215 | 0.9 | 2.6 | 0.00 | 0.00 | 0.00 | 55 | 1012.5 |
| 20260510055618 | 41 | 215 | 1.7 | 2.6 | 0.00 | 0.00 | 0.00 | 56 | 1012.5 |
| 20260510055017 | 41 | 215 | 0.0 | 1.7 | 0.00 | 0.00 | 0.00 | 55 | 1012.4 |
| 20260510054523 | 40 | 215 | 0.9 | 1.7 | 0.00 | 0.00 | 0.00 | 55 | 1012.4 |
| 20260510054021 | 40 | 215 | 0.9 | 1.7 | 0.00 | 0.00 | 0.00 | 56 | 1012.4 |
| 20260510053516 | 40 | 215 | 0.9 | 1.7 | 0.00 | 0.00 | 0.00 | 56 | 1012.4 |
| 20260510053015 | 39 | 215 | 0.0 | 1.7 | 0.00 | 0.00 | 0.00 | 56 | 1012.3 |
| 20260510052516 | 39 | 215 | 0.9 | 1.7 | 0.00 | 0.00 | 0.00 | 56 | 1012.2 |
| 20260510052014 | 39 | 215 | 0.0 | 1.7 | 0.00 | 0.00 | 0.00 | 53 | 1012.2 |
| 20260510051514 | 39 | 215 | 0.0 | 2.6 | 0.00 | 0.00 | 0.00 | 53 | 1012.1 |
| 20260510051012 | 38 | 215 | 0.9 | 2.6 | 0.00 | 0.00 | 0.00 | 54 | 1012.0 |
| 20260510050513 | 38 | 215 | 0.0 | 2.6 | 0.00 | 0.00 | 0.00 | 53 | 1012.0 |
| 20260510050014 | 39 | 215 | 0.9 | 2.6 | 0.00 | 0.00 | 0.00 | 52 | 1011.9 |
| 20260510045512 | 40 | 215 | 0.9 | 2.6 | 0.00 | 0.00 | 0.00 | 52 | 1012.0 |
| 20260510045008 | 41 | 215 | 0.0 | 2.6 | 0.00 | 0.00 | 0.00 | 53 | 1011.8 |
| 20260510044506 | 42 | 215 | 0.9 | 2.6 | 0.00 | 0.00 | 0.00 | 54 | 1011.9 |
| 20260510044005 | 43 | 215 | 0.0 | 2.6 | 0.00 | 0.00 | 0.00 | 53 | 1011.7 |
| 20260510043504 | 43 | 215 | 0.0 | 3.5 | 0.00 | 0.00 | 0.00 | 54 | 1011.7 |
| 20260510043002 | 43 | 215 | 1.7 | 3.5 | 0.00 | 0.00 | 0.00 | 54 | 1011.5 |
| 20260510042502 | 43 | 187 | 0.9 | 3.5 | 0.00 | 0.00 | 0.00 | 53 | 1011.5 |
| 20260510042100 | 44 | 170 | 1.7 | 3.5 | 0.00 | 0.00 | 0.00 | 51 | 1011.5 |
| 20260510041559 | 44 | 170 | 1.7 | 3.5 | 0.00 | 0.00 | 0.00 | 45 | 1011.4 |
| 20260510041058 | 45 | 170 | 0.0 | 2.6 | 0.00 | 0.00 | 0.00 | 44 | 1011.3 |
| 20260510040558 | 45 | 72 | 0.0 | 0.0 | 0.00 | 0.00 | 0.00 | 44 | 1011.2 |
| 20260510040059 | 45 | 72 | 0.0 | 0.0 | 0.00 | 0.00 | 0.00 | 45 | 1011.0 |
| 20260510035556 | 46 | 72 | 0.0 | 0.0 | 0.00 | 0.00 | 0.00 | 41 | 1010.9 |
| 20260510035055 | 47 | 72 | 0.0 | 0.0 | 0.00 | 0.00 | 0.00 | 40 | 1010.9 |
| 20260510034555 | 48 | 72 | 0.0 | 0.0 | 0.00 | 0.00 | 0.00 | 39 | 1010.8 |
| 20260510034055 | 49 | 72 | 0.0 | 0.0 | 0.00 | 0.00 | 0.00 | 40 | 1010.7 |
| 20260510033554 | 50 | 76 | 0.0 | 0.0 | 0.00 | 0.00 | 0.00 | 39 | 1010.6 |
| 20260510033102 | 51 | 74 | 0.0 | 1.7 | 0.00 | 0.00 | 0.00 | 37 | 1010.5 |
| 20260510032555 | 51 | 74 | 0.9 | 5.2 | 0.00 | 0.00 | 0.00 | 37 | 1010.5 |
| 20260510032053 | 53 | 74 | 2.6 | 5.2 | 0.00 | 0.00 | 0.00 | 37 | 1010.3 |
| 20260510031553 | 54 | 305 | 0.0 | 2.6 | 0.00 | 0.00 | 0.00 | 36 | 1010.2 |
| 20260510031052 | 54 | 305 | 0.9 | 2.6 | 0.00 | 0.00 | 0.00 | 35 | 1010.1 |
| 20260510030552 | 55 | 305 | 0.0 | 2.6 | 0.00 | 0.00 | 0.00 | 35 | 1010.0 |
| 20260510025553 | 56 | 294 | 0.9 | 2.6 | 0.00 | 0.00 | 0.00 | 35 | 1009.9 |
| 20260510025054 | 56 | 295 | 0.9 | 3.5 | 0.00 | 0.00 | 0.00 | 38 | 1009.8 |
| 20260510024555 | 56 | 278 | 0.9 | 2.6 | 0.00 | 0.00 | 0.00 | 36 | 1009.8 |
| 20260510024052 | 57 | 296 | 0.9 | 3.5 | 0.00 | 0.00 | 0.00 | 35 | 1009.7 |
| 20260510023551 | 58 | 294 | 1.7 | 3.5 | 0.00 | 0.00 | 0.00 | 34 | 1009.6 |
| 20260510023053 | 59 | 303 | 1.7 | 3.5 | 0.00 | 0.00 | 0.00 | 32 | 1009.5 |
| 20260510022552 | 62 | 280 | 1.7 | 4.3 | 0.00 | 0.00 | 0.00 | 31 | 1009.4 |
| 20260510022053 | 64 | 301 | 2.6 | 4.3 | 0.00 | 0.00 | 0.00 | 27 | 1009.3 |
| 20260510021558 | 67 | 38 | 0.0 | 1.7 | 0.00 | 0.00 | 0.00 | 24 | 1009.3 |
| 20260510021151 | 68 | 38 | 0.0 | 2.6 | 0.00 | 0.00 | 0.00 | 23 | 1009.3 |
| 20260510020552 | 69 | 38 | 0.9 | 3.5 | 0.00 | 0.00 | 0.00 | 23 | 1009.2 |
| 20260510020050 | 69 | 38 | 0.9 | 3.5 | 0.00 | 0.00 | 0.00 | 22 | 1009.2 |
| 20260510015550 | 70 | 57 | 0.9 | 2.6 | 0.00 | 0.00 | 0.00 | 21 | 1009.2 |
| 20260510015050 | 70 | 39 | 0.9 | 4.3 | 0.00 | 0.00 | 0.00 | 21 | 1009.1 |
| 20260510014549 | 70 | 55 | 1.7 | 4.3 | 0.00 | 0.00 | 0.00 | 21 | 1009.1 |
| 20260510014049 | 70 | 22 | 1.7 | 2.6 | 0.00 | 0.00 | 0.00 | 21 | 1009.1 |
| 20260510013549 | 70 | 17 | 0.9 | 4.3 | 0.00 | 0.00 | 0.00 | 21 | 1009.1 |
| 20260510013049 | 70 | 359 | 1.7 | 10.4 | 0.00 | 0.00 | 0.00 | 20 | 1009.1 |
| 20260510012547 | 70 | 45 | 4.3 | 10.4 | 0.00 | 0.00 | 0.00 | 19 | 1009.1 |
| 20260510012050 | 70 | 55 | 2.6 | 7.8 | 0.00 | 0.00 | 0.00 | 21 | 1009.1 |
| 20260510011549 | 70 | 74 | 3.5 | 8.7 | 0.00 | 0.00 | 0.00 | 20 | 1009.1 |
| 20260510011046 | 70 | 72 | 4.3 | 8.7 | 0.00 | 0.00 | 0.00 | 20 | 1009.2 |
| 20260510010547 | 70 | 24 | 3.5 | 9.6 | 0.00 | 0.00 | 0.00 | 20 | 1009.2 |
| 20260510010045 | 70 | 331 | 4.3 | 10.4 | 0.00 | 0.00 | 0.00 | 21 | 1009.1 |
| 20260510005547 | 70 | 11 | 7.0 | 14.8 | 0.00 | 0.00 | 0.00 | 21 | 1009.2 |
| 20260510005046 | 70 | 359 | 7.8 | 13.9 | 0.00 | 0.00 | 0.00 | 21 | 1009.0 |
| 20260510004548 | 71 | 22 | 8.7 | 14.8 | 0.00 | 0.00 | 0.00 | 22 | 1009.1 |
| 20260510004043 | 71 | 28 | 7.8 | 14.8 | 0.00 | 0.00 | 0.00 | 21 | 1009.1 |
| 20260510003542 | 71 | 12 | 8.7 | 14.8 | 0.00 | 0.00 | 0.00 | 22 | 1009.1 |
| 20260510003042 | 71 | 24 | 8.7 | 13.9 | 0.00 | 0.00 | 0.00 | 23 | 1009.1 |
| 20260510002541 | 71 | 359 | 7.8 | 13.9 | 0.00 | 0.00 | 0.00 | 22 | 1009.1 |
| 20260510002040 | 71 | 39 | 8.7 | 13.9 | 0.00 | 0.00 | 0.00 | 23 | 1009.1 |
| 20260510001540 | 71 | 45 | 7.0 | 15.6 | 0.00 | 0.00 | 0.00 | 22 | 1009.1 |
| 20260510001040 | 71 | 359 | 8.7 | 15.6 | 0.00 | 0.00 | 0.00 | 23 | 1009.2 |
| 20260510000541 | 71 | 31 | 8.7 | 14.8 | 0.00 | 0.00 | 0.00 | 23 | 1009.1 |
| 20260510000042 | 71 | 317 | 5.2 | 13.0 | 0.00 | 0.00 | 0.00 | 21 | 1009.1 |
| 20260509235538 | 72 | 20 | 7.8 | 13.0 | 0.00 | 0.00 | 0.00 | 24 | 1009.0 |
| 20260509235037 | 72 | 345 | 7.8 | 14.8 | 0.00 | 0.00 | 0.00 | 24 | 1009.0 |
| 20260509234541 | 72 | 51 | 8.7 | 14.8 | 0.00 | 0.00 | 0.00 | 24 | 1009.0 |
| 20260509234040 | 71 | 52 | 9.6 | 16.5 | 0.00 | 0.00 | 0.00 | 25 | 1009.0 |
| 20260509233539 | 71 | 16 | 8.7 | 16.5 | 0.00 | 0.00 | 0.00 | 24 | 1009.2 |
| 20260509233037 | 71 | 27 | 5.2 | 15.6 | 0.00 | 0.00 | 0.00 | 24 | 1009.2 |
| 20260509232538 | 72 | 1 | 7.8 | 15.6 | 0.00 | 0.00 | 0.00 | 25 | 1009.1 |
| 20260509232035 | 72 | 38 | 7.8 | 13.9 | 0.00 | 0.00 | 0.00 | 25 | 1009.0 |
| 20260509231539 | 72 | 30 | 8.7 | 13.9 | 0.00 | 0.00 | 0.00 | 25 | 1009.0 |
| 20260509231034 | 71 | 51 | 7.0 | 15.6 | 0.00 | 0.00 | 0.00 | 26 | 1009.1 |
| 20260509230534 | 71 | 30 | 7.8 | 14.8 | 0.00 | 0.00 | 0.00 | 25 | 1009.1 |
| 20260509230034 | 72 | 6 | 10.4 | 14.8 | 0.00 | 0.00 | 0.00 | 25 | 1009.2 |
| 20260509225535 | 72 | 40 | 9.6 | 13.9 | 0.00 | 0.00 | 0.00 | 26 | 1009.1 |
| 20260509225033 | 72 | 328 | 6.1 | 10.4 | 0.00 | 0.00 | 0.00 | 25 | 1009.2 |
| 20260509224534 | 72 | 345 | 6.1 | 13.0 | 0.00 | 0.00 | 0.00 | 26 | 1009.2 |
| 20260509224032 | 72 | 315 | 7.0 | 13.0 | 0.00 | 0.00 | 0.00 | 25 | 1009.3 |
| 20260509223531 | 72 | 350 | 7.0 | 15.6 | 0.00 | 0.00 | 0.00 | 26 | 1009.2 |
| 20260509223034 | 72 | 23 | 9.6 | 15.6 | 0.00 | 0.00 | 0.00 | 26 | 1009.2 |
| 20260509222530 | 71 | 20 | 6.1 | 13.9 | 0.00 | 0.00 | 0.00 | 27 | 1009.4 |
| 20260509222029 | 71 | 325 | 6.1 | 13.9 | 0.00 | 0.00 | 0.00 | 25 | 1009.4 |
| 20260509221530 | 71 | 338 | 9.6 | 14.8 | 0.00 | 0.00 | 0.00 | 26 | 1009.4 |
| 20260509221028 | 71 | 311 | 10.4 | 14.8 | 0.00 | 0.00 | 0.00 | 27 | 1009.5 |
| 20260509220531 | 71 | 345 | 6.1 | 13.0 | 0.00 | 0.00 | 0.00 | 28 | 1009.5 |
| 20260509220028 | 71 | 345 | 8.7 | 14.8 | 0.00 | 0.00 | 0.00 | 26 | 1009.7 |
| 20260509215527 | 71 | 31 | 7.0 | 14.8 | 0.00 | 0.00 | 0.00 | 28 | 1009.6 |
| 20260509215027 | 71 | 20 | 6.1 | 12.2 | 0.00 | 0.00 | 0.00 | 28 | 1009.6 |
| 20260509214527 | 71 | 11 | 7.8 | 12.2 | 0.00 | 0.00 | 0.00 | 28 | 1009.6 |
| 20260509214025 | 71 | 37 | 6.1 | 12.2 | 0.00 | 0.00 | 0.00 | 29 | 1009.6 |
| 20260509213525 | 70 | 44 | 7.0 | 12.2 | 0.00 | 0.00 | 0.00 | 29 | 1009.6 |
| 20260509213025 | 70 | 26 | 7.0 | 12.2 | 0.00 | 0.00 | 0.00 | 30 | 1009.6 |
| 20260509212524 | 70 | 2 | 6.1 | 11.3 | 0.00 | 0.00 | 0.00 | 30 | 1009.7 |
| 20260509212027 | 70 | 359 | 3.5 | 11.3 | 0.00 | 0.00 | 0.00 | 30 | 1009.7 |
| 20260509211524 | 70 | 319 | 7.8 | 12.2 | 0.00 | 0.00 | 0.00 | 30 | 1009.7 |
| 20260509211026 | 70 | 20 | 7.0 | 13.9 | 0.00 | 0.00 | 0.00 | 30 | 1009.7 |
| 20260509210527 | 71 | 297 | 7.0 | 13.9 | 0.00 | 0.00 | 0.00 | 30 | 1009.8 |
| 20260509210023 | 70 | 60 | 6.1 | 11.3 | 0.00 | 0.00 | 0.00 | 30 | 1009.8 |
| 20260509205522 | 70 | 9 | 5.2 | 13.9 | 0.00 | 0.00 | 0.00 | 30 | 1010.0 |
| 20260509205022 | 70 | 52 | 7.0 | 13.9 | 0.00 | 0.00 | 0.00 | 30 | 1009.9 |
| 20260509204522 | 70 | 58 | 6.1 | 12.2 | 0.00 | 0.00 | 0.00 | 30 | 1009.8 |
| 20260509204024 | 69 | 48 | 5.2 | 12.2 | 0.00 | 0.00 | 0.00 | 32 | 1009.9 |
| 20260509203521 | 69 | 30 | 7.8 | 13.9 | 0.00 | 0.00 | 0.00 | 32 | 1010.0 |
| 20260509203031 | 69 | 345 | 7.0 | 13.9 | 0.00 | 0.00 | 0.00 | 30 | 1010.0 |
| 20260509202520 | 70 | 12 | 7.0 | 13.9 | 0.00 | 0.00 | 0.00 | 30 | 1010.0 |
| 20260509202021 | 69 | 35 | 8.7 | 13.9 | 0.00 | 0.00 | 0.00 | 31 | 1010.0 |
| 20260509201520 | 69 | 345 | 6.1 | 13.0 | 0.00 | 0.00 | 0.00 | 33 | 1010.0 |
| 20260509201025 | 69 | 41 | 7.8 | 13.0 | 0.00 | 0.00 | 0.00 | 30 | 1010.1 |
| 20260509200520 | 69 | 66 | 7.0 | 13.9 | 0.00 | 0.00 | 0.00 | 31 | 1010.2 |
| 20260509200019 | 69 | 17 | 8.7 | 13.9 | 0.00 | 0.00 | 0.00 | 32 | 1010.2 |
| 20260509195520 | 69 | 355 | 7.8 | 12.2 | 0.00 | 0.00 | 0.00 | 31 | 1010.2 |
| 20260509195019 | 69 | 32 | 4.3 | 16.5 | 0.00 | 0.00 | 0.00 | 32 | 1010.3 |
| 20260509194519 | 69 | 350 | 6.1 | 16.5 | 0.00 | 0.00 | 0.00 | 31 | 1010.4 |
| 20260509194019 | 70 | 89 | 5.2 | 13.9 | 0.00 | 0.00 | 0.00 | 31 | 1010.4 |
| 20260509193520 | 69 | 32 | 6.1 | 12.2 | 0.00 | 0.00 | 0.00 | 31 | 1010.4 |
| 20260509193018 | 69 | 55 | 6.1 | 11.3 | 0.00 | 0.00 | 0.00 | 31 | 1010.6 |
| 20260509192517 | 69 | 345 | 4.3 | 14.8 | 0.00 | 0.00 | 0.00 | 31 | 1010.6 |
| 20260509192017 | 69 | 340 | 9.6 | 14.8 | 0.00 | 0.00 | 0.00 | 29 | 1010.6 |
| 20260509191520 | 69 | 45 | 7.0 | 14.8 | 0.00 | 0.00 | 0.00 | 31 | 1010.4 |
| 20260509191016 | 69 | 45 | 6.1 | 13.0 | 0.00 | 0.00 | 0.00 | 30 | 1010.5 |
| 20260509190514 | 68 | 32 | 7.8 | 13.0 | 0.00 | 0.00 | 0.00 | 30 | 1010.6 |
| 20260509190017 | 68 | 45 | 7.8 | 13.0 | 0.00 | 0.00 | 0.00 | 28 | 1010.7 |
| 20260509185512 | 68 | 51 | 7.0 | 13.9 | 0.00 | 0.00 | 0.00 | 30 | 1010.7 |
| 20260509185012 | 68 | 37 | 7.8 | 13.9 | 0.00 | 0.00 | 0.00 | 28 | 1010.7 |
| 20260509184512 | 67 | 39 | 7.8 | 13.9 | 0.00 | 0.00 | 0.00 | 29 | 1010.8 |
| 20260509184012 | 67 | 22 | 8.7 | 15.6 | 0.00 | 0.00 | 0.00 | 29 | 1010.9 |
| 20260509183510 | 67 | 345 | 10.4 | 15.6 | 0.00 | 0.00 | 0.00 | 28 | 1010.9 |
| 20260509183010 | 67 | 359 | 6.1 | 13.0 | 0.00 | 0.00 | 0.00 | 29 | 1010.9 |
| 20260509182512 | 68 | 29 | 7.8 | 13.0 | 0.00 | 0.00 | 0.00 | 28 | 1010.9 |
| 20260509182010 | 67 | 355 | 7.0 | 13.9 | 0.00 | 0.00 | 0.00 | 29 | 1010.9 |
| 20260509181510 | 68 | 33 | 8.7 | 14.8 | 0.00 | 0.00 | 0.00 | 27 | 1010.9 |
| 20260509181010 | 68 | 22 | 7.8 | 13.9 | 0.00 | 0.00 | 0.00 | 29 | 1010.8 |
| 20260509180509 | 67 | 20 | 5.2 | 11.3 | 0.00 | 0.00 | 0.00 | 29 | 1010.9 |
| 20260509180009 | 66 | 2 | 6.1 | 11.3 | 0.00 | 0.00 | 0.00 | 29 | 1011.0 |
| 20260509175508 | 66 | 355 | 7.8 | 13.9 | 0.00 | 0.00 | 0.00 | 28 | 1011.0 |
| 20260509175007 | 66 | 1 | 7.8 | 13.9 | 0.00 | 0.00 | 0.00 | 27 | 1011.0 |
| 20260509174507 | 67 | 16 | 8.7 | 16.5 | 0.00 | 0.00 | 0.00 | 26 | 1011.0 |
| 20260509174006 | 67 | 51 | 7.0 | 14.8 | 0.00 | 0.00 | 0.00 | 28 | 1011.1 |
| 20260509173504 | 67 | 8 | 6.1 | 14.8 | 0.00 | 0.00 | 0.00 | 29 | 1011.1 |
| 20260509173004 | 66 | 324 | 6.1 | 14.8 | 0.00 | 0.00 | 0.00 | 27 | 1011.2 |
| 20260509172504 | 66 | 5 | 7.8 | 13.0 | 0.00 | 0.00 | 0.00 | 27 | 1011.1 |
| 20260509172003 | 65 | 350 | 9.6 | 13.0 | 0.00 | 0.00 | 0.00 | 29 | 1011.1 |
| 20260509171503 | 66 | 6 | 6.1 | 13.0 | 0.00 | 0.00 | 0.00 | 28 | 1011.1 |
| 20260509171003 | 66 | 359 | 7.8 | 14.8 | 0.00 | 0.00 | 0.00 | 29 | 1011.1 |
| 20260509170501 | 66 | 355 | 9.6 | 14.8 | 0.00 | 0.00 | 0.00 | 30 | 1011.1 |
| 20260509170101 | 66 | 11 | 7.8 | 15.6 | 0.00 | 0.00 | 0.00 | 30 | 1011.0 |
| 20260509165559 | 65 | 17 | 8.7 | 14.8 | 0.00 | 0.00 | 0.00 | 30 | 1011.0 |
| 20260509165058 | 65 | 5 | 7.8 | 13.0 | 0.00 | 0.00 | 0.00 | 31 | 1011.0 |
| 20260509164602 | 64 | 16 | 7.0 | 13.0 | 0.00 | 0.00 | 0.00 | 31 | 1011.0 |
| 20260509164101 | 63 | 5 | 7.8 | 13.0 | 0.00 | 0.00 | 0.00 | 30 | 1011.0 |
| 20260509163556 | 64 | 359 | 8.7 | 13.9 | 0.00 | 0.00 | 0.00 | 29 | 1011.0 |
| 20260509163057 | 64 | 28 | 8.7 | 13.9 | 0.00 | 0.00 | 0.00 | 31 | 1010.9 |
| 20260509162557 | 64 | 13 | 7.0 | 12.2 | 0.00 | 0.00 | 0.00 | 30 | 1011.0 |
| 20260509162057 | 65 | 336 | 7.8 | 12.2 | 0.00 | 0.00 | 0.00 | 32 | 1011.0 |
| 20260509161557 | 64 | 359 | 7.8 | 12.2 | 0.00 | 0.00 | 0.00 | 30 | 1011.1 |
| 20260509161059 | 64 | 355 | 7.0 | 12.2 | 0.00 | 0.00 | 0.00 | 32 | 1011.1 |
| 20260509160557 | 64 | 299 | 7.8 | 12.2 | 0.00 | 0.00 | 0.00 | 32 | 1011.1 |
| 20260509160055 | 64 | 3 | 6.1 | 12.2 | 0.00 | 0.00 | 0.00 | 33 | 1011.1 |
| 20260509155555 | 64 | 335 | 6.1 | 11.3 | 0.00 | 0.00 | 0.00 | 33 | 1011.1 |
| 20260509155054 | 64 | 3 | 7.8 | 13.9 | 0.00 | 0.00 | 0.00 | 34 | 1011.1 |
| 20260509154555 | 64 | 319 | 7.8 | 13.9 | 0.00 | 0.00 | 0.00 | 34 | 1011.2 |
| 20260509154051 | 64 | 334 | 7.0 | 13.0 | 0.00 | 0.00 | 0.00 | 34 | 1011.0 |
| 20260509153551 | 63 | 13 | 8.7 | 13.9 | 0.00 | 0.00 | 0.00 | 33 | 1011.1 |
| 20260509153100 | 63 | 25 | 6.1 | 13.0 | 0.00 | 0.00 | 0.00 | 36 | 1011.1 |
| 20260509152549 | 63 | 345 | 8.7 | 12.2 | 0.00 | 0.00 | 0.00 | 34 | 1011.0 |
| 20260509152050 | 63 | 345 | 7.0 | 12.2 | 0.00 | 0.00 | 0.00 | 35 | 1011.0 |
| 20260509151552 | 63 | 16 | 7.0 | 12.2 | 0.00 | 0.00 | 0.00 | 37 | 1011.0 |
| 20260509151047 | 63 | 355 | 7.8 | 13.0 | 0.00 | 0.00 | 0.00 | 39 | 1011.0 |
| 20260509150547 | 62 | 359 | 7.0 | 12.2 | 0.00 | 0.00 | 0.00 | 39 | 1011.0 |
| 20260509150048 | 62 | 324 | 7.0 | 12.2 | 0.00 | 0.00 | 0.00 | 39 | 1010.9 |
| 20260509145547 | 62 | 350 | 7.0 | 12.2 | 0.00 | 0.00 | 0.00 | 39 | 1011.0 |
| 20260509145048 | 62 | 339 | 7.0 | 11.3 | 0.00 | 0.00 | 0.00 | 38 | 1010.9 |
| 20260509144546 | 62 | 355 | 6.1 | 11.3 | 0.00 | 0.00 | 0.00 | 37 | 1010.9 |
| 20260509144044 | 62 | 345 | 6.1 | 11.3 | 0.00 | 0.00 | 0.00 | 37 | 1010.9 |
| 20260509143547 | 62 | 355 | 6.1 | 12.2 | 0.00 | 0.00 | 0.00 | 37 | 1010.8 |
| 20260509143043 | 62 | 334 | 7.8 | 12.2 | 0.00 | 0.00 | 0.00 | 37 | 1010.8 |
| 20260509142542 | 61 | 345 | 7.0 | 8.7 | 0.00 | 0.00 | 0.00 | 37 | 1010.9 |
| 20260509142040 | 61 | 64 | 2.6 | 5.2 | 0.00 | 0.00 | 0.00 | 41 | 1010.9 |
| 20260509141538 | 60 | 17 | 1.7 | 5.2 | 0.00 | 0.00 | 0.00 | 41 | 1010.9 |
| 20260509141036 | 60 | 58 | 2.6 | 5.2 | 0.00 | 0.00 | 0.00 | 41 | 1011.0 |
| 20260509140536 | 59 | 36 | 2.6 | 6.1 | 0.00 | 0.00 | 0.00 | 40 | 1010.8 |
| 20260509140043 | 59 | 41 | 2.6 | 5.2 | 0.00 | 0.00 | 0.00 | 41 | 1010.9 |
| 20260509135534 | 58 | 24 | 3.5 | 5.2 | 0.00 | 0.00 | 0.00 | 40 | 1010.9 |
| 20260509135031 | 58 | 7 | 2.6 | 5.2 | 0.00 | 0.00 | 0.00 | 40 | 1010.8 |
| 20260509134536 | 58 | 355 | 2.6 | 5.2 | 0.00 | 0.00 | 0.00 | 40 | 1010.8 |
| 20260509134032 | 57 | 355 | 2.6 | 5.2 | 0.00 | 0.00 | 0.00 | 40 | 1010.8 |
| 20260509133531 | 57 | 355 | 2.6 | 5.2 | 0.00 | 0.00 | 0.00 | 40 | 1010.8 |
| 20260509133031 | 57 | 345 | 2.6 | 7.0 | 0.00 | 0.00 | 0.00 | 40 | 1010.7 |
| 20260509132530 | 57 | 345 | 3.5 | 7.0 | 0.00 | 0.00 | 0.00 | 41 | 1010.7 |
| 20260509132035 | 56 | 315 | 4.3 | 7.0 | 0.00 | 0.00 | 0.00 | 42 | 1010.6 |
| 20260509131533 | 54 | 350 | 3.5 | 7.0 | 0.00 | 0.00 | 0.00 | 43 | 1010.6 |
| 20260509131029 | 53 | 2 | 2.6 | 7.0 | 0.00 | 0.00 | 0.00 | 46 | 1010.5 |
| 20260509130531 | 52 | 331 | 2.6 | 5.2 | 0.00 | 0.00 | 0.00 | 48 | 1010.6 |
| 20260509130028 | 51 | 320 | 2.6 | 7.0 | 0.00 | 0.00 | 0.00 | 49 | 1010.5 |
| 20260509125531 | 50 | 334 | 2.6 | 7.0 | 0.00 | 0.00 | 0.00 | 49 | 1010.4 |
| 20260509125026 | 49 | 301 | 3.5 | 7.0 | 0.00 | 0.00 | 0.00 | 50 | 1010.3 |
| 20260509124526 | 49 | 359 | 1.7 | 4.3 | 0.00 | 0.00 | 0.00 | 50 | 1010.4 |
| 20260509124026 | 49 | 28 | 2.6 | 7.0 | 0.00 | 0.00 | 0.00 | 49 | 1010.4 |
| 20260509123525 | 50 | 327 | 4.3 | 7.8 | 0.00 | 0.00 | 0.00 | 49 | 1010.4 |
| 20260509123025 | 49 | 308 | 3.5 | 7.8 | 0.00 | 0.00 | 0.00 | 51 | 1010.3 |
| 20260509122523 | 47 | 297 | 4.3 | 7.0 | 0.00 | 0.00 | 0.00 | 54 | 1010.3 |
| 20260509122023 | 46 | 326 | 3.5 | 7.0 | 0.00 | 0.00 | 0.00 | 53 | 1010.2 |
| 20260509121522 | 47 | 315 | 3.5 | 7.0 | 0.00 | 0.00 | 0.00 | 53 | 1010.2 |
| 20260509121020 | 47 | 317 | 2.6 | 5.2 | 0.00 | 0.00 | 0.00 | 53 | 1010.2 |
| 20260509120519 | 49 | 328 | 2.6 | 7.0 | 0.00 | 0.00 | 0.00 | 50 | 1010.2 |
| 20260509120019 | 50 | 300 | 3.5 | 7.0 | 0.00 | 0.00 | 0.00 | 49 | 1010.1 |
| 20260509115521 | 50 | 308 | 2.6 | 4.3 | 0.00 | 0.00 | 0.00 | 52 | 1010.2 |
| 20260509115017 | 50 | 299 | 1.7 | 4.3 | 0.00 | 0.00 | 0.00 | 52 | 1010.2 |
| 20260509114517 | 50 | 359 | 1.7 | 4.3 | 0.00 | 0.00 | 0.00 | 53 | 1010.2 |
| 20260509114017 | 50 | 311 | 1.7 | 4.3 | 0.00 | 0.00 | 0.00 | 53 | 1010.1 |
| 20260509113516 | 50 | 359 | 1.7 | 4.3 | 0.00 | 0.00 | 0.00 | 54 | 1010.1 |
| 20260509113016 | 49 | 359 | 2.6 | 5.2 | 0.00 | 0.00 | 0.00 | 53 | 1010.1 |
| 20260509112514 | 49 | 341 | 1.7 | 7.0 | 0.00 | 0.00 | 0.00 | 52 | 1010.1 |
| 20260509112016 | 50 | 324 | 2.6 | 5.2 | 0.00 | 0.00 | 0.00 | 52 | 1010.0 |
| 20260509111514 | 50 | 295 | 3.5 | 5.2 | 0.00 | 0.00 | 0.00 | 53 | 1009.9 |
| 20260509111013 | 51 | 299 | 2.6 | 4.3 | 0.00 | 0.00 | 0.00 | 54 | 1009.9 |
| 20260509110514 | 52 | 350 | 2.6 | 5.2 | 0.00 | 0.00 | 0.00 | 53 | 1009.9 |
| 20260509110013 | 51 | 350 | 3.5 | 5.2 | 0.00 | 0.00 | 0.00 | 53 | 1009.9 |
| 20260509105513 | 51 | 359 | 3.5 | 5.2 | 0.00 | 0.00 | 0.00 | 53 | 1009.9 |
| 20260509105012 | 51 | 345 | 2.6 | 5.2 | 0.00 | 0.00 | 0.00 | 52 | 1009.8 |
| 20260509104513 | 51 | 3 | 3.5 | 5.2 | 0.00 | 0.00 | 0.00 | 52 | 1009.9 |
| 20260509104012 | 51 | 32 | 2.6 | 5.2 | 0.00 | 0.00 | 0.00 | 52 | 1009.8 |
| 20260509103511 | 51 | 328 | 1.7 | 5.2 | 0.00 | 0.00 | 0.00 | 51 | 1009.9 |
| 20260509103011 | 51 | 333 | 2.6 | 7.8 | 0.00 | 0.00 | 0.00 | 50 | 1009.9 |
| 20260509102511 | 51 | 359 | 4.3 | 7.8 | 0.00 | 0.00 | 0.00 | 49 | 1009.8 |
| 20260509102010 | 52 | 322 | 4.3 | 7.8 | 0.00 | 0.00 | 0.00 | 49 | 1010.0 |
| 20260509101510 | 53 | 320 | 3.5 | 7.8 | 0.00 | 0.00 | 0.00 | 48 | 1010.0 |
| 20260509101014 | 53 | 319 | 5.2 | 8.7 | 0.00 | 0.00 | 0.00 | 47 | 1010.0 |
| 20260509100511 | 53 | 325 | 6.1 | 8.7 | 0.00 | 0.00 | 0.00 | 47 | 1010.0 |
| 20260509100009 | 53 | 319 | 5.2 | 8.7 | 0.00 | 0.00 | 0.00 | 47 | 1010.0 |
| 20260509095509 | 53 | 319 | 3.5 | 7.0 | 0.00 | 0.00 | 0.00 | 48 | 1010.0 |
| 20260509095011 | 53 | 336 | 4.3 | 8.7 | 0.00 | 0.00 | 0.00 | 47 | 1010.0 |
| 20260509094510 | 54 | 328 | 4.3 | 8.7 | 0.00 | 0.00 | 0.00 | 47 | 1010.0 |
| 20260509094008 | 54 | 326 | 4.3 | 7.8 | 0.00 | 0.00 | 0.00 | 46 | 1009.9 |
| 20260509093509 | 55 | 327 | 4.3 | 7.8 | 0.00 | 0.00 | 0.00 | 46 | 1009.8 |
| 20260509093005 | 55 | 345 | 3.5 | 7.8 | 0.00 | 0.00 | 0.00 | 46 | 1009.8 |
| 20260509092504 | 54 | 322 | 4.3 | 7.0 | 0.00 | 0.00 | 0.00 | 47 | 1009.8 |
| 20260509092008 | 54 | 340 | 3.5 | 7.8 | 0.00 | 0.00 | 0.00 | 47 | 1009.8 |
| 20260509091504 | 54 | 332 | 3.5 | 7.8 | 0.00 | 0.00 | 0.00 | 47 | 1009.7 |
| 20260509091004 | 54 | 315 | 3.5 | 7.8 | 0.00 | 0.00 | 0.00 | 46 | 1009.7 |
| 20260509090502 | 55 | 332 | 2.6 | 7.8 | 0.00 | 0.00 | 0.00 | 46 | 1009.6 |
| 20260509090003 | 54 | 333 | 3.5 | 7.8 | 0.00 | 0.00 | 0.00 | 47 | 1009.5 |
| 20260509085502 | 54 | 313 | 4.3 | 7.8 | 0.00 | 0.00 | 0.00 | 48 | 1009.6 |
| 20260509085002 | 54 | 313 | 4.3 | 7.8 | 0.00 | 0.00 | 0.00 | 48 | 1009.5 |
| 20260509084502 | 54 | 324 | 4.3 | 7.0 | 0.00 | 0.00 | 0.00 | 50 | 1009.4 |
| 20260509084101 | 53 | 330 | 1.7 | 7.0 | 0.00 | 0.00 | 0.00 | 52 | 1009.4 |
| 20260509083559 | 53 | 323 | 2.6 | 7.8 | 0.00 | 0.00 | 0.00 | 51 | 1009.3 |
| 20260509083059 | 52 | 311 | 4.3 | 7.0 | 0.00 | 0.00 | 0.00 | 52 | 1009.4 |
| 20260509082558 | 52 | 319 | 3.5 | 7.0 | 0.00 | 0.00 | 0.00 | 53 | 1009.3 |